M I D A S
Marine Information and Data Acquisition System
Tripno 1764 of the Zeeleeuw from 2009-07-14 06:55:09 to 2009-07-14 15:07:34
Back to CruiseResearch ActivitiesStationsMapUnderway DataData graphs

EquipmentUnitsComments
TimeDGPSUTC
LatitudeDGPSDM.mWGS84
LongitudeDGPSDM.mWGS84
SpeedMeteo Stationm/sRelative wind speed
DirectionMeteo StationdegRelative wind direction
TemperatureMeteo Stationdeg CelciusAir temperature
PressureMeteo StationPaAtmospheric pressure
HumidityMeteo Station%Relative humidity
Missing or incorrect values are displayed as -999
Metereological data collected by the RV Zeeleeuw from 2009-07-14 06:40:25 to 2009-07-14 15:14:00
Time Latitude Longitude Speed Direction Temperature Pressure Humidity
2009-07-14 06:41 51°13.663 2°55.96 1.8 7 17.2 100990 92
2009-07-14 06:42 51°13.663 2°55.96 2 14 17.2 100990 91
2009-07-14 06:43 51°13.663 2°55.96 2 15 17.2 100990 91
2009-07-14 06:44 51°13.663 2°55.96 2.4 20 17.3 101000 92
2009-07-14 06:45 51°13.662 2°55.96 3.2 11 17.3 101000 91
2009-07-14 06:46 51°13.664 2°55.949 1.7 15 17.3 101000 87
2009-07-14 06:47 51°13.681 2°55.88 2.5 28 17.4 101000 91
2009-07-14 06:48 51°13.696 2°55.805 2.4 35 17.4 101000 91
2009-07-14 06:49 51°13.702 2°55.759 2.2 33 17.4 101000 91
2009-07-14 06:50 51°13.7 2°55.751 2.9 43 17.4 101000 91
2009-07-14 06:51 51°13.709 2°55.748 1.4 34 17.5 101000 90
2009-07-14 06:52 51°13.763 2°55.697 1.1 250 17.6 101000 91
2009-07-14 06:53 51°13.862 2°55.609 2 328 17.6 101010 92
2009-07-14 06:54 51°13.982 2°55.521 1.9 321 17.6 101000 91
2009-07-14 06:55 51°14.106 2°55.424 2.9 32 17.7 101000 91
2009-07-14 06:56 51°14.23 2°55.302 4.5 36 17.7 101000 91
2009-07-14 06:57 51°14.332 2°55.122 4.8 35 17.7 101000 90
2009-07-14 06:58 51°14.441 2°54.933 5.5 232 17.7 101000 88
2009-07-14 06:59 51°14.57 2°54.731 5.5 236 17.7 100990 89
2009-07-14 07:00 51°14.725 2°54.552 5.5 32 17.8 101000 89
2009-07-14 07:01 51°14.894 2°54.401 4.8 33 17.8 101000 89
2009-07-14 07:02 51°15.067 2°54.265 4.5 34 17.7 101010 89
2009-07-14 07:03 51°15.235 2°54.12 5.5 233 17.7 101000 89
2009-07-14 07:04 51°15.405 2°53.981 4 233 17.7 101000 89
2009-07-14 07:05 51°15.575 2°53.842 4.7 233 17.7 101000 89
2009-07-14 07:06 51°15.75 2°53.717 4.6 32 17.7 101000 90
2009-07-14 07:07 51°15.937 2°53.644 4 236 17.7 101000 89
2009-07-14 07:08 51°16.109 2°53.504 5.7 235 17.7 101000 89
2009-07-14 07:09 51°16.276 2°53.342 4.8 235 17.7 101000 89
2009-07-14 07:10 51°16.446 2°53.172 5.7 237 17.7 100990 89
2009-07-14 07:11 51°16.628 2°53.039 4.1 234 17.7 101000 88
2009-07-14 07:12 51°16.808 2°52.904 4.3 32 17.6 101000 89
2009-07-14 07:13 51°16.985 2°52.763 5 32 17.7 101000 90
2009-07-14 07:14 51°17.164 2°52.623 4.1 35 17.6 101000 75
2009-07-14 07:15 51°17.346 2°52.487 5.4 33 17.7 101000 91
2009-07-14 07:16 51°17.532 2°52.382 4 242 17.6 101000 90
2009-07-14 07:17 51°17.732 2°52.349 3.4 240 17.7 101000 90
2009-07-14 07:18 51°17.933 2°52.328 4 239 17.7 101000 90
2009-07-14 07:19 51°18.134 2°52.299 3.7 241 17.7 101000 85
2009-07-14 07:20 51°18.336 2°52.266 4.3 241 17.8 101000 89
2009-07-14 07:21 51°18.538 2°52.252 2.9 243 17.8 101000 84
2009-07-14 07:22 51°18.74 2°52.247 2.8 247 17.8 101000 89
2009-07-14 07:23 51°18.941 2°52.24 2.7 248 17.8 101000 90
2009-07-14 07:24 51°19.142 2°52.237 2.4 243 17.8 101000 90
2009-07-14 07:25 51°19.343 2°52.239 3.2 239 17.9 101000 90
2009-07-14 07:26 51°19.543 2°52.23 3.5 237 17.9 100990 89
2009-07-14 07:27 51°19.742 2°52.218 2.8 32 17.9 101000 89
2009-07-14 07:28 51°19.941 2°52.209 3.3 238 17.9 100990 89
2009-07-14 07:29 51°20.144 2°52.206 3.4 237 17.9 100990 84
2009-07-14 07:30 51°20.345 2°52.203 2.9 32 17.9 100990 88
2009-07-14 07:31 51°20.544 2°52.195 2.4 238 18 100990 86
2009-07-14 07:32 51°20.743 2°52.191 2.6 236 18 100990 85
2009-07-14 07:33 51°20.943 2°52.185 2.4 238 18 100990 86
2009-07-14 07:34 51°21.143 2°52.179 2.3 237 18 100990 86
2009-07-14 07:35 51°21.342 2°52.17 2 241 18 100990 88
2009-07-14 07:36 51°21.543 2°52.161 2.8 241 18 100990 85
2009-07-14 07:37 51°21.744 2°52.155 2.8 241 18 100990 86
2009-07-14 07:38 51°21.947 2°52.159 2.3 239 18 100990 86
2009-07-14 07:39 51°22.151 2°52.162 2.8 243 18.1 100990 83
2009-07-14 07:40 51°22.356 2°52.166 3.1 242 18.1 100990 73
2009-07-14 07:41 51°22.557 2°52.169 3.2 242 18.2 100990 73
2009-07-14 07:42 51°22.758 2°52.171 2.8 241 18.3 100990 72
2009-07-14 07:43 51°22.96 2°52.171 3.2 243 18.2 100990 73
2009-07-14 07:44 51°23.162 2°52.164 2.8 239 18.3 100990 71
2009-07-14 07:45 51°23.367 2°52.166 4 32 18.3 100990 71
2009-07-14 07:46 51°23.571 2°52.166 4.5 239 18.2 100990 70
2009-07-14 07:47 51°23.774 2°52.164 3.6 25 18.2 101000 83
2009-07-14 07:48 51°23.976 2°52.158 4.8 238 18.3 101000 81
2009-07-14 07:49 51°24.178 2°52.146 3.7 245 18.3 101000 82
2009-07-14 07:50 51°24.38 2°52.141 5 234 18.3 101000 83
2009-07-14 07:51 51°24.58 2°52.134 3.5 246 18.3 101000 83
2009-07-14 07:52 51°24.78 2°52.133 3.8 241 18.3 101000 84
2009-07-14 07:53 51°24.981 2°52.128 3.9 243 18.3 101000 84
2009-07-14 07:54 51°25.184 2°52.121 4.7 237 18.3 101000 84
2009-07-14 07:55 51°25.388 2°52.121 3.7 238 18.3 101000 84
2009-07-14 07:56 51°25.592 2°52.121 3.7 233 18.3 101000 84
2009-07-14 07:57 51°25.795 2°52.127 4.3 234 18.3 101000 83
2009-07-14 07:58 51°25.997 2°52.128 4.2 35 18.2 101000 83
2009-07-14 07:59 51°26.197 2°52.116 5.7 32 18.2 100990 83
2009-07-14 08:00 51°26.399 2°52.113 4.3 235 18.1 100990 83
2009-07-14 08:01 51°26.604 2°52.112 4.3 237 18.1 100990 83
2009-07-14 08:02 51°26.806 2°52.096 4.4 34 18.1 100990 83
2009-07-14 08:03 51°27.007 2°52.079 4.8 31 18.1 100990 83
2009-07-14 08:04 51°27.21 2°52.067 4.5 232 18.1 100990 83
2009-07-14 08:05 51°27.413 2°52.052 3.3 231 18.1 100990 83
2009-07-14 08:06 51°27.616 2°52.038 4.6 33 18.1 100990 83
2009-07-14 08:07 51°27.818 2°52.021 3.2 33 18.1 101000 84
2009-07-14 08:08 51°28.02 2°52.006 4.6 38 18.1 101000 84
2009-07-14 08:09 51°28.222 2°51.989 4.4 34 18.1 101000 84
2009-07-14 08:10 51°28.424 2°51.979 3.8 35 18.1 101000 84
2009-07-14 08:11 51°28.625 2°51.975 4.2 40 18.1 101000 84
2009-07-14 08:12 51°28.827 2°51.969 3.7 38 18.1 101000 84
2009-07-14 08:13 51°29.03 2°51.973 3.6 231 18.1 101000 84
2009-07-14 08:14 51°29.235 2°51.98 3 231 18.1 101010 85
2009-07-14 08:15 51°29.437 2°51.986 3.6 234 18.1 101010 85
2009-07-14 08:16 51°29.637 2°51.987 2.3 40 18.1 101010 85
2009-07-14 08:17 51°29.836 2°51.988 3.2 37 18.1 101010 84
2009-07-14 08:18 51°30.036 2°51.988 3.3 233 18.1 101010 84
2009-07-14 08:19 51°30.237 2°51.987 3 34 18.1 101010 84
2009-07-14 08:20 51°30.438 2°51.982 3.2 39 18.1 101010 85
2009-07-14 08:21 51°30.64 2°51.975 2.7 35 18.1 101010 84
2009-07-14 08:22 51°30.843 2°51.963 2.6 40 18.1 101010 85
2009-07-14 08:23 51°31.046 2°51.952 3.1 39 18.1 101010 85
2009-07-14 08:24 51°31.249 2°51.942 2.6 38 18.1 101010 85
2009-07-14 08:25 51°31.451 2°51.937 1.9 34 18.1 101010 85
2009-07-14 08:26 51°31.593 2°51.926 2.1 263 18.1 101010 85
2009-07-14 08:27 51°31.67 2°51.907 2.5 266 18.1 101010 85
2009-07-14 08:28 51°31.73 2°51.906 2 34 18.1 101020 85
2009-07-14 08:29 51°31.763 2°51.959 4.4 33 18.1 101020 86
2009-07-14 08:30 51°31.774 2°52.004 3.5 27 18.1 101010 86
2009-07-14 08:31 51°31.782 2°52.04 3.9 25 18.1 101010 86
2009-07-14 08:32 51°31.79 2°52.081 4 31 18 101010 86
2009-07-14 08:33 51°31.802 2°52.121 3.3 32 17.9 101010 86
2009-07-14 08:34 51°31.812 2°52.131 2.2 34 18 101010 87
2009-07-14 08:35 51°31.822 2°52.137 3.7 35 17.9 101010 86
2009-07-14 08:36 51°31.831 2°52.142 3.4 34 17.9 101010 87
2009-07-14 08:37 51°31.84 2°52.145 3 30 17.9 101010 87
2009-07-14 08:38 51°31.852 2°52.118 3.8 35 17.9 101000 87
2009-07-14 08:39 51°31.856 2°52.124 3.2 6 17.8 101000 86
2009-07-14 08:40 51°31.82 2°52.145 4.4 338 17.9 101000 87
2009-07-14 08:41 51°31.785 2°52.116 4.5 326 17.9 101000 87
2009-07-14 08:42 51°31.779 2°52.095 3.3 32 17.8 101000 86
2009-07-14 08:43 51°31.787 2°52.099 2.6 238 17.9 101000 87
2009-07-14 08:44 51°31.794 2°52.105 2.8 240 17.9 101000 87
2009-07-14 08:45 51°31.802 2°52.11 3.2 246 18 101000 88
2009-07-14 08:46 51°31.81 2°52.115 3.1 248 18.1 101000 87
2009-07-14 08:47 51°31.817 2°52.12 2.6 251 18.1 101000 88
2009-07-14 08:48 51°31.821 2°52.133 2.2 263 18.1 101000 81
2009-07-14 08:49 51°31.809 2°52.188 3.3 269 18.2 101000 84
2009-07-14 08:50 51°31.808 2°52.2 3.4 248 18.1 101000 79
2009-07-14 08:51 51°31.804 2°52.144 5 323 18.1 101000 86
2009-07-14 08:52 51°31.772 2°52.046 5 315 18.1 100990 86
2009-07-14 08:53 51°31.792 2°51.878 4.3 35 18.1 100990 86
2009-07-14 08:54 51°31.8 2°51.706 5.4 326 18 100990 86
2009-07-14 08:55 51°31.749 2°51.675 4.1 353 18.1 100990 86
2009-07-14 08:56 51°31.725 2°51.717 3 8 18 100990 87
2009-07-14 08:57 51°31.72 2°51.77 3 17 18 100990 88
2009-07-14 08:58 51°31.72 2°51.835 3.2 13 18 100990 87
2009-07-14 08:59 51°31.717 2°51.884 3.1 15 18 100990 86
2009-07-14 09:00 51°31.722 2°51.887 2.6 16 18.1 100990 86
2009-07-14 09:01 51°31.73 2°51.875 2.5 18 18.1 100990 86
2009-07-14 09:02 51°31.739 2°51.853 2.6 23 18.2 100990 86
2009-07-14 09:03 51°31.747 2°51.821 2.7 28 18.3 100990 86
2009-07-14 09:04 51°31.754 2°51.813 2.4 32 18.3 100990 86
2009-07-14 09:05 51°31.772 2°51.842 2.2 29 18.3 100990 85
2009-07-14 09:06 51°31.803 2°51.89 1.6 30 18.3 101000 86
2009-07-14 09:07 51°31.845 2°51.94 1.5 32 18.4 101000 84
2009-07-14 09:08 51°31.895 2°51.984 0.7 34 18.5 101000 83
2009-07-14 09:09 51°31.952 2°51.996 1.5 39 18.5 101010 84
2009-07-14 09:10 51°32.007 2°51.967 2.4 260 18.6 101010 84
2009-07-14 09:11 51°32.048 2°51.893 3.7 238 18.7 101010 84
2009-07-14 09:12 51°32.053 2°51.795 4.8 32 18.7 101000 83
2009-07-14 09:13 51°32.035 2°51.695 4.7 319 18.7 101000 82
2009-07-14 09:14 51°32.002 2°51.599 5 321 18.7 101000 82
2009-07-14 09:15 51°31.966 2°51.5 5.5 318 18.7 101010 81
2009-07-14 09:16 51°31.933 2°51.399 4.6 326 18.7 101010 81
2009-07-14 09:17 51°31.886 2°51.331 6 332 18.7 101010 81
2009-07-14 09:18 51°31.828 2°51.286 6.1 339 18.7 101010 81
2009-07-14 09:19 51°31.765 2°51.265 6 343 18.7 101010 80
2009-07-14 09:20 51°31.706 2°51.275 4.4 355 18.6 101010 80
2009-07-14 09:21 51°31.654 2°51.321 4.9 360 18.5 101010 82
2009-07-14 09:22 51°31.606 2°51.38 4.5 5 18.3 101010 82
2009-07-14 09:23 51°31.58 2°51.454 2.9 23 18.2 101020 83
2009-07-14 09:24 51°31.593 2°51.534 2.3 37 18.2 101020 82
2009-07-14 09:25 51°31.618 2°51.623 2.4 29 18.3 101010 83
2009-07-14 09:26 51°31.644 2°51.72 2.5 30 18.4 101020 83
2009-07-14 09:27 51°31.673 2°51.82 2.7 32 18.4 101020 81
2009-07-14 09:28 51°31.699 2°51.925 2.6 30 18.4 101020 80
2009-07-14 09:29 51°31.73 2°52.023 2.1 34 18.4 101020 81
2009-07-14 09:30 51°31.759 2°52.125 2.6 25 18.5 101020 81
2009-07-14 09:31 51°31.788 2°52.225 2.5 29 18.6 101020 82
2009-07-14 09:32 51°31.822 2°52.323 3.2 24 18.7 101020 81
2009-07-14 09:33 51°31.854 2°52.424 3.5 28 18.7 101030 81
2009-07-14 09:34 51°31.887 2°52.524 2.8 34 18.7 101030 80
2009-07-14 09:35 51°31.937 2°52.584 1.6 40 18.7 101030 80
2009-07-14 09:36 51°31.999 2°52.568 4.6 258 18.7 101030 80
2009-07-14 09:37 51°32.033 2°52.481 5.8 239 18.8 101020 80
2009-07-14 09:38 51°32.02 2°52.382 6.1 325 18.8 101020 80
2009-07-14 09:39 51°31.973 2°52.303 6.7 329 18.8 101020 78
2009-07-14 09:40 51°31.916 2°52.244 6.5 334 18.7 101020 78
2009-07-14 09:41 51°31.862 2°52.184 6.1 327 18.7 101020 78
2009-07-14 09:42 51°31.814 2°52.121 6.2 333 18.7 101020 80
2009-07-14 09:43 51°31.772 2°52.047 6.6 321 18.7 101030 79
2009-07-14 09:44 51°31.751 2°51.952 5.6 39 18.6 101020 79
2009-07-14 09:45 51°31.737 2°51.851 5.1 39 18.7 101020 79
2009-07-14 09:46 51°31.719 2°51.748 5.2 41 18.7 101020 80
2009-07-14 09:47 51°31.7 2°51.643 5.6 36 18.7 101020 80
2009-07-14 09:48 51°31.692 2°51.534 5.5 235 18.6 101020 79
2009-07-14 09:49 51°31.685 2°51.429 5.8 38 18.7 101020 80
2009-07-14 09:50 51°31.654 2°51.346 6.1 327 18.6 101020 80
2009-07-14 09:51 51°31.606 2°51.301 6.1 341 18.6 101020 80
2009-07-14 09:52 51°31.557 2°51.305 4.8 358 18.6 101020 80
2009-07-14 09:53 51°31.525 2°51.354 4.9 12 18.5 101020 83
2009-07-14 09:54 51°31.525 2°51.42 3.1 30 18.3 101030 82
2009-07-14 09:55 51°31.55 2°51.485 2.5 40 18.3 101030 83
2009-07-14 09:56 51°31.584 2°51.556 1.7 34 18.4 101030 83
2009-07-14 09:57 51°31.612 2°51.638 2.2 35 18.5 101030 84
2009-07-14 09:58 51°31.641 2°51.722 2 34 18.5 101030 83
2009-07-14 09:59 51°31.67 2°51.805 2 38 18.5 101030 82
2009-07-14 10:00 51°31.699 2°51.89 2.2 37 18.5 101040 82
2009-07-14 10:01 51°31.729 2°51.972 1.8 34 18.6 101040 82
2009-07-14 10:02 51°31.769 2°52.042 1.8 40 18.6 101030 80
2009-07-14 10:03 51°31.804 2°52.113 2.5 41 18.6 101040 80
2009-07-14 10:04 51°31.831 2°52.185 2.5 41 18.6 101040 79
2009-07-14 10:05 51°31.853 2°52.264 2.8 34 18.6 101030 80
2009-07-14 10:06 51°31.861 2°52.359 3.3 20 18.6 101030 80
2009-07-14 10:07 51°31.854 2°52.46 3 21 18.6 101030 81
2009-07-14 10:08 51°31.842 2°52.562 3.4 15 18.7 101030 81
2009-07-14 10:09 51°31.849 2°52.657 2.1 40 18.7 101030 81
2009-07-14 10:10 51°31.891 2°52.705 1.5 36 18.7 101030 81
2009-07-14 10:11 51°31.943 2°52.68 4.3 255 18.8 101040 81
2009-07-14 10:12 51°31.973 2°52.594 4.3 34 18.9 101040 81
2009-07-14 10:13 51°31.96 2°52.49 4.8 328 18.9 101030 80
2009-07-14 10:14 51°31.911 2°52.403 6.7 334 18.9 101030 79
2009-07-14 10:15 51°31.846 2°52.325 5.3 333 18.9 101030 79
2009-07-14 10:16 51°31.798 2°52.224 5.1 320 18.8 101030 79
2009-07-14 10:17 51°31.774 2°52.114 5.9 320 18.7 101030 80
2009-07-14 10:18 51°31.753 2°52.008 4.6 320 18.7 101030 80
2009-07-14 10:19 51°31.734 2°51.905 5.4 320 18.7 101030 80
2009-07-14 10:20 51°31.722 2°51.802 5.3 41 18.7 101030 81
2009-07-14 10:21 51°31.714 2°51.699 5.3 34 18.7 101030 81
2009-07-14 10:22 51°31.706 2°51.596 5.2 42 18.6 101030 81
2009-07-14 10:23 51°31.697 2°51.493 4.2 40 18.6 101040 80
2009-07-14 10:24 51°31.683 2°51.392 3.8 318 18.6 101040 82
2009-07-14 10:25 51°31.649 2°51.309 5.2 332 18.6 101040 79
2009-07-14 10:26 51°31.594 2°51.266 4.4 349 18.6 101030 81
2009-07-14 10:27 51°31.54 2°51.288 3.8 7 18.4 101030 81
2009-07-14 10:28 51°31.524 2°51.36 1.7 34 18.4 101030 83
2009-07-14 10:29 51°31.548 2°51.442 0.5 39 18.4 101040 84
2009-07-14 10:30 51°31.577 2°51.543 0.8 38 18.6 101040 85
2009-07-14 10:31 51°31.611 2°51.642 0.6 35 18.8 101040 85
2009-07-14 10:32 51°31.647 2°51.738 1 35 18.9 101040 85
2009-07-14 10:33 51°31.682 2°51.833 0.6 35 19.1 101050 84
2009-07-14 10:34 51°31.715 2°51.931 0.8 35 19.2 101050 83
2009-07-14 10:35 51°31.746 2°52.03 0.6 35 19.2 101050 82
2009-07-14 10:36 51°31.778 2°52.129 0.9 35 19.4 101050 82
2009-07-14 10:37 51°31.81 2°52.227 0.6 35 19.4 101040 81
2009-07-14 10:38 51°31.84 2°52.324 0.8 34 19.4 101040 81
2009-07-14 10:39 51°31.864 2°52.425 1 33 19.5 101040 81
2009-07-14 10:40 51°31.883 2°52.528 1.1 34 19.6 101040 80
2009-07-14 10:41 51°31.899 2°52.632 0.6 34 19.6 101040 79
2009-07-14 10:42 51°31.927 2°52.716 2.1 265 19.6 101040 78
2009-07-14 10:43 51°31.979 2°52.705 3.2 244 19.6 101040 78
2009-07-14 10:44 51°32.012 2°52.619 3.9 33 19.7 101030 78
2009-07-14 10:45 51°32.004 2°52.516 4.7 324 19.6 101030 77
2009-07-14 10:46 51°31.963 2°52.423 4.8 335 19.4 101030 75
2009-07-14 10:47 51°31.906 2°52.343 4.7 338 19.3 101030 74
2009-07-14 10:48 51°31.855 2°52.265 3.9 330 19.3 101030 76
2009-07-14 10:49 51°31.816 2°52.177 4.4 325 19.3 101030 77
2009-07-14 10:50 51°31.79 2°52.084 4.1 316 19.3 101020 76
2009-07-14 10:51 51°31.771 2°51.988 4.2 319 19.3 101020 76
2009-07-14 10:52 51°31.742 2°51.888 4.4 324 19.2 101020 76
2009-07-14 10:53 51°31.706 2°51.785 4.4 324 19.1 101020 77
2009-07-14 10:54 51°31.669 2°51.679 5.1 325 19.1 101030 77
2009-07-14 10:55 51°31.634 2°51.578 5.1 325 19.1 101020 77
2009-07-14 10:56 51°31.602 2°51.496 4.4 325 19 101020 77
2009-07-14 10:57 51°31.559 2°51.429 4.8 347 19 101030 76
2009-07-14 10:58 51°31.5 2°51.435 3 16 18.8 101030 77
2009-07-14 10:59 51°31.494 2°51.495 0.4 25 18.7 101040 78
2009-07-14 11:00 51°31.532 2°51.555 0.4 258 18.7 101030 80
2009-07-14 11:01 51°31.576 2°51.637 0.1 258 18.9 101030 81
2009-07-14 11:02 51°31.62 2°51.716 1.4 264 19.1 101020 81
2009-07-14 11:03 51°31.653 2°51.761 1.5 28 19.1 101030 79
2009-07-14 11:04 51°31.679 2°51.798 1.7 23 19.1 101030 78
2009-07-14 11:05 51°31.7 2°51.832 1.7 30 19.1 101020 77
2009-07-14 11:06 51°31.715 2°51.853 2 29 19.1 101030 77
2009-07-14 11:07 51°31.718 2°51.861 1.6 25 19 101020 77
2009-07-14 11:08 51°31.714 2°51.865 2 28 19.1 101030 79
2009-07-14 11:09 51°31.706 2°51.864 1.2 22 19.4 101030 78
2009-07-14 11:10 51°31.696 2°51.861 2.7 23 19.7 101030 77
2009-07-14 11:11 51°31.685 2°51.856 1.3 29 19.7 101030 74
2009-07-14 11:12 51°31.674 2°51.861 1.9 28 19.7 101030 74
2009-07-14 11:13 51°31.683 2°51.905 2.5 262 19.5 101030 74
2009-07-14 11:14 51°31.72 2°51.947 0.7 25 19.4 101030 75
2009-07-14 11:15 51°31.757 2°52.024 1.7 264 19.4 101030 75
2009-07-14 11:16 51°31.793 2°52.057 1.7 22 19.4 101030 75
2009-07-14 11:17 51°31.798 2°52.098 1.6 29 19.4 101030 75
2009-07-14 11:18 51°31.792 2°52.13 1.5 22 19.4 101030 74
2009-07-14 11:19 51°31.781 2°52.139 2.1 24 19.2 101030 75
2009-07-14 11:20 51°31.766 2°52.141 2.8 40 19.1 101030 76
2009-07-14 11:21 51°31.748 2°52.14 2.3 39 19 101030 77
2009-07-14 11:22 51°31.753 2°52.18 1.5 28 19 101030 78
2009-07-14 11:23 51°31.807 2°52.194 3.2 249 19.1 101030 78
2009-07-14 11:24 51°31.836 2°52.14 2.8 248 19.2 101030 78
2009-07-14 11:25 51°31.824 2°52.106 3 270 19.2 101030 77
2009-07-14 11:26 51°31.819 2°52.089 1.3 32 19.3 101030 77
2009-07-14 11:27 51°31.816 2°52.097 2.1 28 19.2 101030 77
2009-07-14 11:28 51°31.806 2°52.103 2.6 43 19.2 101030 77
2009-07-14 11:29 51°31.792 2°52.104 2.7 43 19 101030 75
2009-07-14 11:30 51°31.775 2°52.099 2.5 39 19 101030 76
2009-07-14 11:31 51°31.757 2°52.09 2.6 34 19 101030 77
2009-07-14 11:32 51°31.739 2°52.068 2.5 36 19 101030 77
2009-07-14 11:33 51°31.731 2°52.075 0.7 38 19 101020 78
2009-07-14 11:34 51°31.762 2°52.095 0.3 269 19 101020 79
2009-07-14 11:35 51°31.78 2°52.112 1.1 28 19.1 101030 79
2009-07-14 11:36 51°31.792 2°52.119 1.6 25 19.2 101030 77
2009-07-14 11:37 51°31.791 2°52.123 2.3 27 19.1 101030 77
2009-07-14 11:38 51°31.779 2°52.112 2.9 23 19.1 101040 76
2009-07-14 11:39 51°31.764 2°52.096 2.7 21 18.9 101040 76
2009-07-14 11:40 51°31.747 2°52.08 3 39 18.9 101040 77
2009-07-14 11:41 51°31.729 2°52.061 3.2 33 18.9 101040 77
2009-07-14 11:42 51°31.712 2°52.041 3.5 29 18.9 101040 77
2009-07-14 11:43 51°31.694 2°52.019 3.6 28 18.8 101030 76
2009-07-14 11:44 51°31.676 2°51.995 3.2 25 18.8 101030 75
2009-07-14 11:45 51°31.658 2°51.969 2.9 24 18.8 101030 75
2009-07-14 11:46 51°31.641 2°51.944 3.1 24 18.8 101030 76
2009-07-14 11:47 51°31.626 2°51.919 3.6 31 18.8 101030 74
2009-07-14 11:48 51°31.61 2°51.895 3.4 32 18.9 101030 74
2009-07-14 11:49 51°31.595 2°51.871 3.9 37 18.8 101030 72
2009-07-14 11:50 51°31.58 2°51.846 3.7 38 18.8 101030 72
2009-07-14 11:51 51°31.562 2°51.821 3.9 37 18.9 101030 72
2009-07-14 11:52 51°31.546 2°51.795 3.7 35 18.8 101030 71
2009-07-14 11:53 51°31.518 2°51.793 3.1 23 18.8 101030 71
2009-07-14 11:54 51°31.443 2°51.906 4.1 2 18.8 101030 72
2009-07-14 11:55 51°31.34 2°52.097 4.6 356 18.8 101030 73
2009-07-14 11:56 51°31.251 2°52.351 4.3 351 18.7 101040 74
2009-07-14 11:57 51°31.164 2°52.62 4.9 353 18.7 101030 75
2009-07-14 11:58 51°31.075 2°52.889 4.3 347 18.6 101040 74
2009-07-14 11:59 51°30.986 2°53.157 4.3 348 18.6 101040 75
2009-07-14 12:00 51°30.9 2°53.427 4.3 347 18.6 101030 76
2009-07-14 12:01 51°30.812 2°53.699 4.3 349 18.5 101040 74
2009-07-14 12:02 51°30.749 2°53.899 1.5 5 18.5 101040 76
2009-07-14 12:03 51°30.73 2°53.986 2 39 18.6 101040 75
2009-07-14 12:04 51°30.714 2°54.023 2.5 41 18.6 101040 75
2009-07-14 12:05 51°30.697 2°54.037 2.2 33 18.6 101040 74
2009-07-14 12:06 51°30.68 2°54.036 2.1 22 18.6 101030 75
2009-07-14 12:07 51°30.663 2°54.03 2.2 39 18.7 101030 74
2009-07-14 12:08 51°30.647 2°54.019 2.5 36 18.7 101030 74
2009-07-14 12:09 51°30.633 2°54.001 3 36 18.7 101030 75
2009-07-14 12:10 51°30.621 2°53.982 3.1 34 18.8 101030 75
2009-07-14 12:11 51°30.609 2°53.964 3 36 18.8 101030 76
2009-07-14 12:12 51°30.597 2°53.946 2.8 37 18.8 101030 75
2009-07-14 12:13 51°30.586 2°53.928 3 40 18.8 101030 76
2009-07-14 12:14 51°30.575 2°53.911 3.1 41 18.7 101030 76
2009-07-14 12:15 51°30.563 2°53.894 3.1 41 18.7 101030 76
2009-07-14 12:16 51°30.552 2°53.878 3.6 42 18.7 101030 76
2009-07-14 12:17 51°30.54 2°53.863 3.1 39 18.7 101030 75
2009-07-14 12:18 51°30.528 2°53.848 3.2 37 18.7 101030 75
2009-07-14 12:19 51°30.515 2°53.833 3.4 37 18.8 101030 76
2009-07-14 12:20 51°30.504 2°53.819 3.6 36 18.8 101030 75
2009-07-14 12:21 51°30.492 2°53.805 3.8 35 18.9 101030 74
2009-07-14 12:22 51°30.48 2°53.792 3.6 37 18.9 101030 74
2009-07-14 12:23 51°30.467 2°53.778 3.4 30 18.9 101030 74
2009-07-14 12:24 51°30.455 2°53.763 3.4 32 19 101030 75
2009-07-14 12:25 51°30.444 2°53.749 3.6 29 19 101030 74
2009-07-14 12:26 51°30.432 2°53.735 3.5 29 19 101030 74
2009-07-14 12:27 51°30.42 2°53.722 4.1 27 19.1 101040 74
2009-07-14 12:28 51°30.408 2°53.708 3.8 24 19 101040 74
2009-07-14 12:29 51°30.357 2°53.72 3.3 16 19.1 101030 74
2009-07-14 12:30 51°30.283 2°53.877 2.4 359 19.1 101030 74
2009-07-14 12:31 51°30.213 2°54.118 2.3 347 19 101030 74
2009-07-14 12:32 51°30.173 2°54.392 2.2 346 18.9 101030 76
2009-07-14 12:33 51°30.142 2°54.668 2.8 339 19 101040 75
2009-07-14 12:34 51°30.106 2°54.944 2.9 339 19.2 101040 76
2009-07-14 12:35 51°30.068 2°55.217 2.9 339 19.2 101040 72
2009-07-14 12:36 51°30.026 2°55.492 3 337 19.3 101040 73
2009-07-14 12:37 51°29.983 2°55.767 2.9 338 19.3 101030 72
2009-07-14 12:38 51°29.949 2°56.043 3.3 335 19.3 101040 72
2009-07-14 12:39 51°29.935 2°56.319 2.6 330 19.4 101040 72
2009-07-14 12:40 51°29.922 2°56.597 2.9 331 19.5 101040 72
2009-07-14 12:41 51°29.906 2°56.875 3.2 330 19.5 101040 72
2009-07-14 12:42 51°29.899 2°57.155 3 329 19.5 101040 72
2009-07-14 12:43 51°29.887 2°57.438 2.8 329 19.5 101040 72
2009-07-14 12:44 51°29.877 2°57.721 2.9 328 19.5 101040 71
2009-07-14 12:45 51°29.863 2°58 3.6 326 19.5 101040 70
2009-07-14 12:46 51°29.844 2°58.281 3.3 327 19.6 101040 70
2009-07-14 12:47 51°29.829 2°58.562 3 328 19.5 101040 70
2009-07-14 12:48 51°29.817 2°58.843 3.9 330 19.6 101040 70
2009-07-14 12:49 51°29.804 2°59.122 3.8 327 19.7 101040 71
2009-07-14 12:50 51°29.79 2°59.402 3.1 329 19.7 101040 69
2009-07-14 12:51 51°29.774 2°59.684 3.3 330 19.7 101040 69
2009-07-14 12:52 51°29.759 2°59.966 3.7 331 19.7 101040 69
2009-07-14 12:53 51°29.745 3°0.246 4 331 19.8 101040 71
2009-07-14 12:54 51°29.727 3°0.525 3.5 331 19.7 101040 70
2009-07-14 12:55 51°29.709 3°0.805 4 335 19.7 101040 71
2009-07-14 12:56 51°29.698 3°1.084 4 332 19.7 101040 72
2009-07-14 12:57 51°29.685 3°1.363 3.8 329 19.7 101040 72
2009-07-14 12:58 51°29.675 3°1.646 3.8 330 19.7 101040 72
2009-07-14 12:59 51°29.666 3°1.935 3.6 331 19.7 101040 71
2009-07-14 13:00 51°29.656 3°2.226 3.9 329 19.7 101040 71
2009-07-14 13:01 51°29.643 3°2.519 3.4 327 19.7 101040 71
2009-07-14 13:02 51°29.667 3°2.801 3.7 322 19.6 101040 71
2009-07-14 13:03 51°29.714 3°3.08 4.1 324 19.6 101040 71
2009-07-14 13:04 51°29.759 3°3.36 3.9 321 19.6 101040 71
2009-07-14 13:05 51°29.803 3°3.64 4.1 319 19.6 101040 71
2009-07-14 13:06 51°29.825 3°3.92 3.6 327 19.6 101040 71
2009-07-14 13:07 51°29.81 3°4.136 1 320 19.6 101040 71
2009-07-14 13:08 51°29.782 3°4.239 0.4 320 19.7 101040 72
2009-07-14 13:09 51°29.743 3°4.294 0.7 335 19.8 101040 71
2009-07-14 13:10 51°29.701 3°4.347 0.3 23 19.8 101040 70
2009-07-14 13:11 51°29.665 3°4.439 0.6 346 19.8 101040 72
2009-07-14 13:12 51°29.618 3°4.542 0.8 352 20 101040 71
2009-07-14 13:13 51°29.571 3°4.651 0.4 351 20 101050 70
2009-07-14 13:14 51°29.531 3°4.764 1.2 350 20 101040 69
2009-07-14 13:15 51°29.467 3°4.859 1.7 1 19.9 101040 69
2009-07-14 13:16 51°29.391 3°4.939 2.5 360 19.7 101040 70
2009-07-14 13:17 51°29.311 3°5.014 1.9 2 19.5 101040 70
2009-07-14 13:18 51°29.24 3°5.104 1.7 1 19.3 101040 71
2009-07-14 13:19 51°29.166 3°5.191 2.1 1 19.3 101050 72
2009-07-14 13:20 51°29.085 3°5.271 1.3 2 19.2 101050 72
2009-07-14 13:21 51°28.999 3°5.343 2 355 19.2 101050 73
2009-07-14 13:22 51°28.91 3°5.369 2.1 1 19.2 101040 73
2009-07-14 13:23 51°28.829 3°5.374 2.3 1 19.1 101050 72
2009-07-14 13:24 51°28.753 3°5.375 1.9 3 19.1 101040 72
2009-07-14 13:25 51°28.679 3°5.377 1.9 4 19 101040 72
2009-07-14 13:26 51°28.607 3°5.379 1.7 4 19.1 101040 72
2009-07-14 13:27 51°28.537 3°5.388 1.6 7 19.2 101040 73
2009-07-14 13:28 51°28.468 3°5.402 1.5 5 19.2 101040 72
2009-07-14 13:29 51°28.398 3°5.413 1.7 5 19.2 101040 72
2009-07-14 13:30 51°28.33 3°5.426 1.7 6 19.2 101040 72
2009-07-14 13:31 51°28.261 3°5.438 1.8 5 19.2 101040 73
2009-07-14 13:32 51°28.192 3°5.453 2.1 3 19.2 101040 72
2009-07-14 13:33 51°28.124 3°5.468 2 4 19.1 101040 72
2009-07-14 13:34 51°28.053 3°5.474 2.5 3 19.1 101050 72
2009-07-14 13:35 51°27.983 3°5.447 2.6 352 19.1 101040 73
2009-07-14 13:36 51°27.916 3°5.418 2.3 1 19 101050 73
2009-07-14 13:37 51°27.845 3°5.405 3.1 360 19 101050 74
2009-07-14 13:38 51°27.756 3°5.29 5.7 336 19 101050 75
2009-07-14 13:39 51°27.672 3°5.064 6.4 337 19.1 101040 75
2009-07-14 13:40 51°27.578 3°4.811 6.3 336 19.2 101040 74
2009-07-14 13:41 51°27.477 3°4.536 8.5 336 19.3 101040 74
2009-07-14 13:42 51°27.373 3°4.24 8.6 337 19.3 101040 73
2009-07-14 13:43 51°27.267 3°3.943 7.7 338 19.3 101040 71
2009-07-14 13:44 51°27.161 3°3.646 8.3 337 19.3 101040 71
2009-07-14 13:45 51°27.054 3°3.349 7.8 336 19.3 101040 72
2009-07-14 13:46 51°26.95 3°3.047 9.1 336 19.3 101040 72
2009-07-14 13:47 51°26.845 3°2.743 8 337 19.3 101040 73
2009-07-14 13:48 51°26.738 3°2.444 9.6 336 19.3 101050 74
2009-07-14 13:49 51°26.632 3°2.143 10 336 19.2 101050 74
2009-07-14 13:50 51°26.526 3°1.842 8.7 336 19.1 101050 75
2009-07-14 13:51 51°26.418 3°1.546 10.4 336 19.1 101050 75
2009-07-14 13:52 51°26.313 3°1.248 9.1 338 19.2 101050 76
2009-07-14 13:53 51°26.211 3°0.949 10.5 339 19.1 101050 77
2009-07-14 13:54 51°26.106 3°0.653 9.2 339 19.2 101050 78
2009-07-14 13:55 51°26.004 3°0.352 9 338 19.1 101050 78
2009-07-14 13:56 51°25.9 3°0.05 9.5 336 19 101050 78
2009-07-14 13:57 51°25.793 2°59.75 9.5 337 19 101050 78
2009-07-14 13:58 51°25.686 2°59.45 9.6 336 19 101050 81
2009-07-14 13:59 51°25.582 2°59.146 9.8 337 18.9 101050 79
2009-07-14 14:00 51°25.477 2°58.844 8.8 337 18.9 101050 80
2009-07-14 14:01 51°25.372 2°58.541 8.2 337 18.8 101050 79
2009-07-14 14:02 51°25.265 2°58.241 9.6 337 18.9 101050 79
2009-07-14 14:03 51°25.16 2°57.941 8.7 338 18.9 101050 79
2009-07-14 14:04 51°24.998 2°57.728 8 341 19 101050 80
2009-07-14 14:05 51°24.798 2°57.6 7.3 341 19 101050 78
2009-07-14 14:06 51°24.597 2°57.488 7.3 341 19 101040 78
2009-07-14 14:07 51°24.397 2°57.377 8 342 19 101050 77
2009-07-14 14:08 51°24.196 2°57.267 7.1 340 18.9 101050 77
2009-07-14 14:09 51°23.998 2°57.151 6.5 339 19 101050 78
2009-07-14 14:10 51°23.797 2°57.042 6.4 340 19 101040 77
2009-07-14 14:11 51°23.598 2°56.934 7.4 341 19.1 101040 77
2009-07-14 14:12 51°23.402 2°56.813 8.1 343 19.1 101040 78
2009-07-14 14:13 51°23.215 2°56.677 7.5 345 19 101040 78
2009-07-14 14:14 51°23.029 2°56.537 8.2 342 19 101050 79
2009-07-14 14:15 51°22.842 2°56.399 7.3 341 18.9 101050 79
2009-07-14 14:16 51°22.652 2°56.269 8.2 343 18.9 101040 80
2009-07-14 14:17 51°22.465 2°56.137 7.9 344 18.9 101050 79
2009-07-14 14:18 51°22.28 2°55.999 7 343 18.9 101040 79
2009-07-14 14:19 51°22.094 2°55.864 6.9 342 18.9 101050 79
2009-07-14 14:20 51°21.911 2°55.727 8 343 18.9 101050 79
2009-07-14 14:21 51°21.731 2°55.593 7.5 344 19 101040 78
2009-07-14 14:22 51°21.55 2°55.462 8.7 338 19 101050 78
2009-07-14 14:23 51°21.371 2°55.325 7.4 343 19 101050 78
2009-07-14 14:24 51°21.19 2°55.195 6.9 341 19 101040 78
2009-07-14 14:25 51°21.01 2°55.057 8.6 346 19 101040 79
2009-07-14 14:26 51°20.829 2°54.925 8.5 340 19 101040 79
2009-07-14 14:27 51°20.649 2°54.794 8.8 343 18.9 101040 78
2009-07-14 14:28 51°20.467 2°54.667 7.9 341 19 101040 77
2009-07-14 14:29 51°20.287 2°54.535 7.3 340 19.1 101040 73
2009-07-14 14:30 51°20.11 2°54.393 8.1 341 19.1 101040 69
2009-07-14 14:31 51°19.935 2°54.249 7.5 343 19.2 101030 67
2009-07-14 14:32 51°19.762 2°54.103 7.5 342 19.2 101040 69
2009-07-14 14:33 51°19.588 2°53.958 8.4 341 19.2 101050 68
2009-07-14 14:34 51°19.414 2°53.816 9.1 342 19.2 101040 67
2009-07-14 14:35 51°19.242 2°53.669 8.5 343 19.3 101040 68
2009-07-14 14:36 51°19.074 2°53.518 8.5 339 19.2 101040 67
2009-07-14 14:37 51°18.903 2°53.367 7.9 342 19.3 101040 66
2009-07-14 14:38 51°18.732 2°53.217 7.8 342 19.3 101040 67
2009-07-14 14:39 51°18.562 2°53.066 8.7 340 19.4 101040 66
2009-07-14 14:40 51°18.391 2°52.919 7.7 339 19.3 101040 67
2009-07-14 14:41 51°18.221 2°52.771 8 339 19.4 101040 67
2009-07-14 14:42 51°18.05 2°52.635 9.4 341 19.4 101040 68
2009-07-14 14:43 51°17.871 2°52.526 7.8 343 19.3 101040 67
2009-07-14 14:44 51°17.689 2°52.447 6.8 345 19.3 101040 68
2009-07-14 14:45 51°17.497 2°52.417 6.9 346 19.2 101040 68
2009-07-14 14:46 51°17.307 2°52.422 6.4 346 19.1 101040 69
2009-07-14 14:47 51°17.12 2°52.481 5.3 345 19 101040 69
2009-07-14 14:48 51°16.936 2°52.572 5.1 342 18.9 101050 68
2009-07-14 14:49 51°16.753 2°52.67 5.7 342 18.9 101050 69
2009-07-14 14:50 51°16.568 2°52.771 6.5 343 19 101040 68
2009-07-14 14:51 51°16.383 2°52.876 5.6 343 19.1 101040 67
2009-07-14 14:52 51°16.199 2°52.972 6.1 342 19.1 101040 68
2009-07-14 14:53 51°16.023 2°53.083 5.3 344 19.2 101040 68
2009-07-14 14:54 51°15.854 2°53.222 5.7 341 19.2 101050 68
2009-07-14 14:55 51°15.688 2°53.364 4.9 341 19.2 101040 66
2009-07-14 14:56 51°15.525 2°53.513 4.7 338 19.2 101050 67
2009-07-14 14:57 51°15.363 2°53.666 4.3 339 19.2 101040 66
2009-07-14 14:58 51°15.202 2°53.822 4.8 338 19.3 101040 67
2009-07-14 14:59 51°15.043 2°53.987 4.2 336 19.3 101040 67
2009-07-14 15:00 51°14.891 2°54.168 4.6 335 19.4 101040 67
2009-07-14 15:01 51°14.751 2°54.374 4.6 331 19.3 101040 67
2009-07-14 15:02 51°14.609 2°54.581 4.4 332 19.4 101040 67
2009-07-14 15:03 51°14.479 2°54.809 4.3 330 19.4 101040 66
2009-07-14 15:04 51°14.361 2°55.065 4.5 334 19.4 101040 67
2009-07-14 15:05 51°14.24 2°55.276 3.5 337 19.4 101040 66
2009-07-14 15:06 51°14.124 2°55.412 2.8 338 19.4 101040 67
2009-07-14 15:07 51°13.997 2°55.503 2.9 336 19.4 101040 65
2009-07-14 15:08 51°13.887 2°55.579 2.6 338 19.5 101040 65
2009-07-14 15:09 51°13.794 2°55.664 2.4 322 19.6 101040 65
2009-07-14 15:10 51°13.73 2°55.763 1.1 328 19.7 101030 66
2009-07-14 15:11 51°13.689 2°55.848 1.6 358 19.8 101030 65
2009-07-14 15:12 51°13.669 2°55.925 -999 5 19.9 101030 64
2009-07-14 15:13 51°13.663 2°55.954 0.5 27 20 101030 64